Location: Novokuznetsk
(53.7500°N, 87.1000°E)
Time: 01:51:06
(UTC+06:00)

ISS - Visible Passes

Search period start: 26 February 2021 00:00
Search period end: 08 March 2021 00:00
Orbit: 417 x 422 km, 51.6° (Epoch: 26 February)

Date Brightness Start Highest point End Pass type
(mag) Time Alt. Az. Time Alt. Az. Time Alt. Az.
26 Feb -1.3 04:25:51 16° SE 04:25:51 16° SE 04:27:39 10° ESE visible
26 Feb -2.9 05:58:49 13° WSW 06:01:41 45° SSE 06:04:55 10° E visible
27 Feb -2.7 05:13:17 29° SSW 05:14:18 37° SSE 05:17:27 10° E visible
28 Feb -2.0 04:27:41 26° SE 04:27:41 26° SE 04:29:56 10° E visible
28 Feb -3.4 06:00:39 14° WSW 06:03:26 59° S 06:06:46 10° E visible
01 Mar -0.5 03:42:02 12° E 03:42:02 12° E 03:42:20 10° E visible
01 Mar -3.4 05:15:00 36° SW 05:16:01 53° S 05:19:19 10° E visible
02 Mar -2.6 04:29:19 38° SE 04:29:19 38° SE 04:31:50 10° E visible
02 Mar -3.5 06:02:16 13° W 06:05:12 60° S 06:08:32 10° ESE visible
03 Mar -0.8 03:43:37 15° E 03:43:37 15° E 03:44:19 10° E visible
03 Mar -3.6 05:16:34 35° WSW 05:17:44 61° S 05:21:05 10° E visible
04 Mar -3.1 04:30:51 49° SE 04:30:51 49° SE 04:33:36 10° E visible
04 Mar -3.2 06:03:48 11° W 06:06:53 47° SSW 06:10:08 10° ESE visible
05 Mar -1.1 03:45:08 17° E 03:45:08 17° E 03:46:06 10° E visible
05 Mar -3.5 05:18:05 31° WSW 05:19:26 54° S 05:22:43 10° ESE visible
06 Mar -3.3 04:32:23 53° SE 04:32:23 53° SE 04:35:16 10° ESE visible
06 Mar -2.6 06:05:26 10° W 06:08:27 31° SSW 06:11:28 10° SE visible
07 Mar -1.2 03:46:43 19° ESE 03:46:43 19° ESE 03:47:46 10° E visible
07 Mar -3.1 05:19:40 26° WSW 05:21:01 39° SSW 05:24:10 10° SE visible
